Regional Weather Roundup
Issued by NWS Charleston, SC

Current Version | Previous Version | Text Only | Print | Product List | Glossary Off
Versions: 1 2 3 4 5 6 7 8 9 10 11 12 13 14 15 16 17 18 19 20 21 22 23 24 25 26 27 28 29 30 31 32 33 34 35 36 37 38 39 40 41 42 43 44 45 46 47 48 49 50

000
ASUS42 KCHS 011726
RWRCHS

REGIONAL WEATHER ROUNDUP
NATIONAL WEATHER SERVICE CHARLESTON SC
100 PM EDT WED APR 01 2015

NOTE: "FAIR" INDICATES FEW OR NO CLOUDS BELOW 12,000 FEET WITH NO
SIGNIFICANT WEATHER AND/OR OBSTRUCTIONS TO VISIBILITY.

NOT ALL STATIONS ARE QUALITY CONTROLLED BY THE NATIONAL
WEATHER SERVICE. USE DATA WITH CAUTION...ESPECIALLY
DEWPOINT OBSERVATIONS.

SCZ027-030-031-034>040-042>050-011800-
...SOUTHEAST SOUTH CAROLINA...

CITY           SKY/WX    TMP DP  RH WIND       PRES   REMARKS
N CHARLESTON   CLOUDY    69  58  67 N13       30.06R
WATERFRONT PRK   N/A     64 N/A N/A N8          N/A
MOUNT PLEASANT FAIR      63  55  77 NE5       30.07R
PINOPOLIS        N/A     70  59  68 VRB2      29.97S
MONCKS CORNER  PTSUNNY   70  55  60 NE5       30.05F
SUMMERVILLE    PTSUNNY   70  59  68 CALM      30.06S
BEAUFORT MCAS  CLOUDY    68  58  70 CALM      30.06S
BEAUFORT ARPT  PTSUNNY   68  61  77 CALM      30.05F
HILTON HEAD IS PTSUNNY   70  59  68 N5        30.06F
WALTERBORO     MOSUNNY   72  55  56 NE5       30.06S
ALLENDALE      FAIR      73  55  53 N5        30.04S

...SOUTHERN MIDLANDS AND PEE DEE...

CITY           SKY/WX    TMP DP  RH WIND       PRES   REMARKS
GEORGETOWN     NOT AVBL
KINGSTREE      NOT AVBL
ORANGEBURG     SUNNY     74  52  46 E13       30.05S
BARNWELL       FAIR      75  57  53 NE8       30.05S
AIKEN          FAIR      73  48  40 NE7       30.08R
MANNING        FAIR      72  41  33 NE8       30.07S
COLUMBIA       SUNNY     73  39  29 E12       30.05F
SUMTER         MOSUNNY   71  42  35 NE10      30.07S
FLORENCE       SUNNY     69  43  38 NE14G20   30.09F
MYRTLE BEACH   SUNNY     63  48  59 E13G21    30.13R
N MYRTLE BEACH MOSUNNY   62  48  60 E15       30.10R

$$

GAZ063-065-086>088-099>101-113>116-118-119-134>141-150-011800-
...SOUTHEAST GEORGIA...

CITY           SKY/WX    TMP DP  RH WIND       PRES   REMARKS
SAVANNAH ARPT  PTSUNNY   71  59  65 VRB7      30.06F
HUNTER AAF     PTSUNNY   73  59  61 NW6       30.04S
FORT STEWART   MOSUNNY   73  58  59 W10       30.04F
STATESBORO     MOSUNNY   71  59  66 CALM      30.06S
SYLVANIA       MOSUNNY   73  60  64 CALM      30.06S
CLAXTON        PTSUNNY   72  59  64 NW9       30.06S

...CSRA...CENTRAL AND FAR SOUTHEAST GEORGIA...

CITY           SKY/WX    TMP DP  RH WIND       PRES   REMARKS
THOMSON        SUNNY     78  58  50 N7        30.08F
AUGUSTA-BUSH   SUNNY     76  54  46 N8        30.03F
AUGUSTA-DANIEL SUNNY     76  52  43 NW6       30.04F
SWAINSBORO     FAIR      77  48  36 NW6       30.06S
VIDALIA        SUNNY     73  59  60 NW10G16   30.07S
EASTMAN        FAIR      76  58  53 SW6       30.08F
HAZLEHURST     FAIR      77  59  53 NW6       30.06F
ALMA           PTSUNNY   77  57  50 NW7       30.06F
WAYCROSS       PTSUNNY   83  63  50 NW12      30.05F
JESUP          FAIR      77  64  65 NW9       30.06S
BAXLEY         PTSUNNY   77  59  53 N7        30.06F
BRUNSWICK      PTSUNNY   81  59  47 NW6       30.05S
SAINT SIMONS   SUNNY     78  61  55 W9        30.04F

$$

SCZ027-028-034-036>038-045-046-048>050-GAZ119-141-011800-
...LAKE AND SUPPLEMENTAL COASTAL OBSERVATIONS...

STATION/POSITION TIME  TEMP    WIND        PRES    WAVE   SWELL
                       AIR SEA DIR/SP/G            HT/PER HT/PER/DIR
                 (UTC) (F)     (DEG/KT/KT) (MB)    (FT/S) (FT/S/D)
UPR LAKE MARION  NOT AVBL
WINYAH BAY       1600   58      60/ 13     1018.0
LAKE MURRAY      1600   66      70/  5/ 13 1017.6S
ACE BASIN NERRS  NOT AVBL
FORT PULASKI     1700   66 61  270/  7/  8 1018.2F
SAPELO ISLAND    1700   75     330/  9     1017.0S

$$

ANZ835-935-AMZ111-154-330-350-352-354-370-450-454-472-011800-
...C-MAN AND BUOY OBSERVATIONS...

STATION/POSITION TIME  TEMP    WIND        PRES    WAVE   SWELL
                       AIR SEA DIR/SP/G            HT/PER HT/PER/DIR
                 (UTC) (F)     (DEG/KT/KT) (MB)    (FT/S) (FT/S/D)
BUOY 41004       1650   65 68   10/ 17/ 19 1017.0F   3/ 6
BUOY 41008       1650   65 63   20/  4/  6 1018.5R   2/ 5   2/150/ 5
FOLLY BEACH CMAN 1700   62      20/  5/  6 1017.9R
CAPERS NEARSHORE NOT AVBL
FRIPP NEARSHORE  1600   63      CALM  /  2 1017.7S


STATION/POSITION TIME  TEMP    WIND        PRES    WAVE   SWELL
                       AIR SEA DIR/SP/G            HT/PER HT/PER/DIR
                 (UTC) (F)     (DEG/KT/KT) (MB)    (FT/S) (FT/S/D)
5E ST. MARYS GA  1621      63                N/A     1/ 4
FRYING PAN BUOY  1650   58 62   50/ 23/ 27 1018.9R   7/ 6
BUOY 41025       NOT AVBL
CAPE LOOKOUT NC  1700   53      40/ 13/ 16 1020.1R
BUOY 41002       1650   69 69  320/  6/  8 1016.1F   7/ 7   7/280/ 7
BUOY 41010       1620   74 75  280/ 14/ 17 1019.8F
ST AUGUSTINE FL  1700   78 62  260/  9/ 14 1018.6F


$$


USA.gov is the U.S. government's official web portal to all federal, state and local government web resources and services.